{"data":{"norad_id":68920,"intl_designator":"2026-098B","name":"KUIPER-00380","alt_names":[],"object_type":"PAYLOAD","status":"ACTIVE","operator":null,"country":"US","launch_date":"2026-04-30","launch_site_code":"FRGUI","launch_vehicle":null,"mission":null,"orbit_class":"UNKNOWN","rcs_meters":null,"size_class":null,"mass_kg":null,"dimensions":null,"purposes":[],"wikipedia_slug":null,"has_3d_model":false,"image_url":null,"decayed_at":null,"tle_current":{"epoch":"2026-05-25T01:35:07.639296Z","epoch_age_seconds":79826,"freshness":"FRESH","line1":"1 68920U 26098B   26145.06606064  .00000924  00000+0  39848-4 0  9996","line2":"2 68920  51.8747 179.2886 0008713  60.6102 299.5752 15.33280705  3796","mean_motion":15.33280705,"eccentricity":0.0008713,"inclination_deg":51.8747,"raan_deg":179.2886,"arg_perigee_deg":60.6102,"mean_anomaly_deg":299.5752,"bstar":3.9848e-5,"rev_number":379,"period_min":93.916266949958,"perigee_km":460.06871996698,"apogee_km":471.99536894385,"semimajor_km":6844.1690444554,"source":"CELESTRAK","updated_at":"2026-05-25T13:38:08.792203Z"}}}